Tracking 26922 objects as of 30-Jan-2023
HD Live streaming from Space Station
objects crossing your sky now

FREGAT R/B

Track FREGAT R/B now!


NORAD ID: 54032
Int'l Code: 2022-130B
Perigee: 19,236.9 km
Apogee: 19,367.9 km
Inclination: 64.8 °
Period: 682.3 minutes
Semi major axis: 25673 km
RCS: Unknown
Launch date: October 10, 2022
Source: Commonwealth of Independent States (former USSR) (CIS)
Launch site: PLESETSK MISSILE AND SPACE COMPLEX (PKMTR)

Note: This is a ROCKET BODY
Your satellite tracking list
Your tracking list is empty




NASA's NSSDC Master Catalog

Two Line Element Set (TLE):
1 54032U 22130B   23029.06169428 -.00000075  00000-0  00000-0 0  9997
2 54032  64.7725 357.8535 0025509 174.7664 185.2582  2.11046190  2321
Source of the keplerian elements: AFSPC